Skip Page Navigation
NASA JPL Caltech
NASA Logo - Jet Propulsion Laboratory + View the NASA Portal
+ Center for Near-Earth Object Studies
JPL Home Earth Solar System Stars & Galaxies Technology
JPL Solar System Dynamics
BODIES ORBITS EPHEMERIDES TOOLS PHYSICAL DATA DISCOVERY FAQ SITE MAP
JPL Small-Body Database Browser
Search: [ help ]  
14318 Buzinov (1978 SD3)
Classification: Main-belt Asteroid          SPK-ID: 2014318
Ephemeris | Orbit Diagram | Orbital Elements | Mission Design | Physical Parameters | Discovery Circumstances | Close-Approach Data ]

[ hide orbit diagram ]

For accurate long-term ephemerides, please instead use our Horizons system.This orbit viewer was implemented using two-body methods, and hence should not be used for determining accurate long-term trajectories (over several years or decades) or planetary encounter circumstances.


Orbital Elements at Epoch 2459200.5 (2020-Dec-17.0) TDB
Reference: JPL 29 (heliocentric ecliptic J2000)
 Element Value Uncertainty (1-sigma)   Units 
e .2115553794852121 3.1051e-08  
a 2.191954265496967 5.7821e-09 au
q 1.728234549045527 6.9106e-08 au
i 4.511550407182936 3.4629e-06 deg
node 345.9919668240276 3.7871e-05 deg
peri 319.6287022845148 3.874e-05 deg
M 38.95632154519163 6.9043e-06 deg
tp 2459072.231179657123
(2020-Aug-10.73117966)
2.2874e-05 TDB
period 1185.347422237182
3.25
4.6902e-06
1.284e-08
d
yr
n .3037084261089874 1.2017e-09 deg/d
Q 2.655673981948408 7.0054e-09 au
  Orbit Determination Parameters
   # obs. used (total)      2132  
   data-arc span      15454 days (42.31 yr)  
   first obs. used      1978-09-26  
   last obs. used      2021-01-17  
   planetary ephem.      DE431  
   SB-pert. ephem.      SB431-N16  
   condition code      0  
   norm. resid. RMS      .48035  
   source      ORB  
   producer      Otto Matic  
   solution date      2021-Feb-24 02:17:23  

Additional Information
 Earth MOID = .714483 au 
 Jupiter MOID = 2.60124 au 
 T_jup = 3.639 
[ show covariance matrix ]

Ephemeris | Orbit Diagram | Orbital Elements | Mission Design | Physical Parameters | Discovery Circumstances | Close-Approach Data ]

Physical Parameter Table
Parameter Symbol Value Units Sigma Reference Notes
absolute magnitude H 14.68   n/a E2021B10  
diameter diameter 3.031 km 0.084 urn:nasa:pds:neowise_diameters_albedos::2.0[mainbelt] (http://adsabs.harvard.edu/abs/2011ApJ...741...68M)  
geometric albedo albedo 0.309   0.040 urn:nasa:pds:neowise_diameters_albedos::2.0[mainbelt] (http://adsabs.harvard.edu/abs/2011ApJ...741...68M)  

14318 Buzinov           Discovered 1978 Sept. 26 by L. V. Zhuravleva at the Crimean Astrophysical Observatory.
Victor Mikhajlovich Buzinov (1934-2006) was a St. Petersburg journalist. About three thousand of his Radio walks through the city won the recognition of citizens and promoted their civic consciousness. He wrote several books on the history of St. Petersburg that were awarded prestigious prizes.
NOTE: some special characters may not display properly (any characters within {} are an attempt to place the proper accent above a character)
Reference: 20070106/MPCPages.arcLast Updated: 2007-01-09

[ hide close-approach data ]
Close-Approach Data   ...sorted by Date/Time (TDB)
Date/Time (TDB) Time Uncertainty
(days_HH:MM)
Body Nominal Distance (au) Minimum Distance (au) Maximum Distance (au) V-relative (km/s) V-infinity (km/s) JD (TDB) Time Uncertainty (minutes) Semi-major axis (km) Semi-minor axis (km) range-LOV angle (deg) N-sigma BP Orbit Ref. Reference Modified
2132-Oct-31 11:41 < 00:01 Hebe 0.00937624239872518 0.00936303237577752 0.00938945726171469 7.14264170331094 7.14264161048489 2500060.987050696 0.381638068877424 739.609894329275 34.6066846582909 27.0793932235268 18521.8030213242 T 29 CATAB v2.0f-lin.ifort 2021-Feb-24 02:17:29 2021-Feb-24 02:17

Alternate Designations
 1978 SD3 = 1991 QL = 1991 RY12 
Ephemeris | Orbit Diagram | Orbital Elements | Mission Design | Physical Parameters | Discovery Circumstances | Close-Approach Data ]
ABOUT SSD CREDITS/AWARDS PRIVACY/COPYRIGHT GLOSSARY LINKS
FirstGov 2021-Mar-04 21:39 UT
(server date/time)  
NASA Home Page
Site Manager:   Ryan S. Park
Webmaster  Alan B. Chamberlin